[[{"header":{"parameterUnit":"m.s-1","parameterCategory":1,"la1":30.2991,"la2":30.254,"lo1":-89.0895,"lo2":-89.0444,"dy":0.0017,"dx":0.0017,"nx":28,"ny":28,"refTime":"2024-05-17T03:00:00:Z","depth":0,"parameterNumber":2,"parameterNumberName":"U-component_of_WINDS"},"data":[0,0,0,0,0,0,0,0,0,0,0,0,0,0,0,0,0,0,0,0,0,0,0,0,0,0,0,0,0,0,0,0,0,0,0,0,0,0,0,0,0,0,0,0,0,0,0,0,0,0,0,0,0,0,0,0,0,0,0.9562,0.9566,0,0.9875,0.9879,0.9882,0.9927,0.9924,0.9921,0.9919,1.0249,1.026,1.0271,0,0,0,0,0,0,0,0,0,0,0,0,0,0.9009,0.9019,0.9562,0.9566,0.957,0.9875,0.9879,0.9883,0.9928,0.9924,0.9921,0.9917,1.0245,1.0259,1.0272,0,0,0,0,0,0,0,0,0,0,0,0,0,0.9279,0.9022,0.9561,0.9628,0.9638,0.9874,0.9879,0.9885,0.9929,0.9924,0.992,0.9916,1.0241,1.0257,1.0274,1.0468,0,0,1.0327,1.0335,0,0,0,0,0,0,0,0,0.9263,0.9299,0.9615,0.9624,0.9635,0.9857,0.9805,1.0081,0.993,0.9818,0.9919,0.9914,1.0123,1.0149,1.0218,1.0484,1.0498,1.0329,1.0339,1.0346,1.0351,0,0,0,0,0,0,0,0.9245,0.9286,0.9686,0.9619,0.9632,0.9645,0.9679,0.9858,0.9992,0.9828,0.9832,0.9868,1.0128,1.0201,1.0226,1.0503,1.0328,1.0343,1.0354,1.0361,1.094,1.0945,0,0,0,0,0,0,0.9213,0.927,0.9676,0.9696,0.9434,0.9659,0.9696,0.9791,0.999,1.0016,0.9871,0.9869,1.0174,1.0206,1.0238,1.0476,1.0346,1.0362,1.0372,1.0935,1.0941,1.0947,0,0,0,0,0,0,0.9201,0.9248,0.9664,0.9484,0.9538,0.9673,0.9779,0.9799,0.9873,1.0022,1.0047,0.9921,1.0172,1.0214,1.0409,1.0488,1.037,1.0386,1.0929,1.0937,1.0944,1.0954,0,0,0,0,0,0,0.9184,0.9244,0.9317,0.9485,0.9547,0.9828,0.9784,0.9808,0.9901,0.9901,1.0076,1.0101,1.0172,1.0383,1.0426,1.0509,1.0399,1.0923,1.0933,1.0942,1.0947,1.096,1.0972,0,0,0,0,0,0.9165,0.931,0.9321,0.937,0.9641,0.9832,0.9868,0.9943,0.9907,0.9983,1.0079,1.0095,1.0472,1.0403,1.0452,1.0541,1.0918,1.093,1.0941,1.0941,1.0958,1.0972,0,0,0,0,0,0,0.9152,0.9334,0.9347,0.9551,0.9675,0.9839,0.9937,0.9959,1.0099,1.0093,1.0184,1.0223,1.0414,1.0498,1.0417,1.0738,1.0692,1.0714,1.0676,1.0693,1.0705,1.0681,1.0414,0,0,0,0,0,0.9172,0.931,0.9462,0.9627,0.9688,0.9802,0.9888,0.9935,1.0068,1.0122,1.0232,1.0364,1.0511,1.0607,1.0752,1.0959,1.0997,1.1045,1.1057,1.1067,1.1085,1.1198,1.122,1.0984,1.0984,1.0984,0,0,0.9218,0.9333,0.9415,0.9627,0.9729,0.987,0.9846,0.9998,1.0104,1.0147,1.0336,1.0421,1.0574,1.0775,1.087,1.0851,1.1158,1.1082,1.1088,1.1101,1.1212,1.1234,1.1254,1.0992,1.099,1.0989,0,0,0.937,0.9472,0.9619,0.9721,0.9874,0.9948,0.9983,1.0143,1.02,1.0391,1.0425,1.0554,1.0807,1.0913,1.1,1.119,1.121,1.1235,1.1301,1.1411,1.1429,1.1446,1.1512,1.1534,1.1252,1.1252,1.1252,0,0.9407,0.9619,0.9693,0.9842,0.9934,0.9975,1.0125,1.0222,1.0415,1.0479,1.0454,1.077,1.0876,1.1101,1.1147,1.1217,1.126,1.1215,1.142,1.1438,1.1455,1.1518,1.1543,1.1254,1.1254,1.1254,1.1254,0,0.9656,0.9802,0.9903,1.0084,1.0188,1.0337,1.0435,1.0532,1.0569,1.0646,1.0839,1.0967,1.1137,1.1194,1.1235,1.1425,1.1408,1.1401,1.1357,1.1478,1.1539,1.1564,1.1257,1.1256,1.1256,1.1255,0,0,0.9811,1.0028,1.0064,1.0145,1.0316,1.0431,1.0582,1.0744,1.0824,1.0957,1.1085,1.1296,1.1289,1.1388,1.1441,1.1537,1.1676,1.1518,1.1523,1.1541,1.1891,1.1894,1.1921,1.169,1.1695,1.1699,1.1877,0,0.9982,1.0248,1.0318,1.0545,1.0681,1.0721,1.0852,1.0972,1.1047,1.1175,1.126,1.1406,1.1388,1.1447,1.1544,1.1638,1.1747,1.1627,1.1811,1.1816,1.1769,1.1953,1.1958,1.212,1.1902,1.1906,1.1909,0,1.0217,1.0349,1.0588,1.0738,1.0798,1.0914,1.1066,1.1188,1.1324,1.1372,1.148,1.1523,1.1682,1.1629,1.185,1.1766,1.1846,1.1903,1.1912,1.1931,1.1869,1.1976,1.2174,1.2198,1.1948,1.1945,1.1942,0,1.0303,1.0541,1.0714,1.0783,1.0963,1.1043,1.1122,1.1254,1.1346,1.1481,1.1541,1.1694,1.1777,1.1895,1.1977,1.1932,1.219,1.2145,1.2235,1.2233,1.2287,1.2283,1.2499,1.2341,1.2341,1.234,1.234,0,1.0486,1.063,1.0754,1.086,1.1023,1.1103,1.1263,1.1344,1.146,1.1584,1.163,1.1745,1.1848,1.1977,1.2044,1.2215,1.2253,1.2297,1.2312,1.2292,1.2286,1.2345,1.2335,1.2347,1.2345,1.2344,1.2343,0,1.0609,1.0698,1.0888,1.1042,1.1084,1.1197,1.1329,1.1434,1.151,1.1666,1.1707,1.1827,1.1982,1.2075,1.2273,1.2317,1.2505,1.2518,1.2458,1.2465,1.2548,1.2538,1.2809,1.2848,1.2665,1.2666,1.2668,0,1.0718,1.083,1.0993,1.1078,1.1157,1.1293,1.1386,1.1469,1.1564,1.1726,1.1811,1.1968,1.2097,1.2342,1.2449,1.2599,1.2614,1.2699,1.2637,1.2612,1.2613,1.2605,1.2615,1.2709,1.271,1.2711,1.2713,0,1.0903,1.0941,1.1071,1.1217,1.1325,1.1445,1.1565,1.1632,1.1735,1.184,1.1996,1.2096,1.2295,1.245,1.2608,1.2692,1.272,1.2731,1.2759,1.2739,1.2698,1.2719,1.2484,1.2724,1.2723,1.2722,1.2722,1.2721,1.1022,1.1121,1.1251,1.1395,1.1492,1.1602,1.1707,1.1794,1.1925,1.2091,1.2133,1.2297,1.2429,1.2644,1.2731,1.2861,1.2848,1.289,1.29,1.2909,1.2909,1.2678,1.2891,1.289,1.289,1.289,1.289,0,1.1207,1.1291,1.1422,1.1586,1.1698,1.1712,1.1844,1.1938,1.208,1.2199,1.2324,1.2503,1.2653,1.2769,1.2922,1.3004,1.302,1.3041,1.3036,1.3054,1.2913,1.2872,1.3025,1.3025,1.3025,1.3025,1.3025,1.3025,1.1316,1.1484,1.1537,1.1754,1.1839,1.1997,1.2071,1.2172,1.2267,1.2464,1.2587,1.266,1.2779,1.2941,1.3078,1.3109,1.3162,1.3181,1.3213,1.3079,1.3064,1.305,1.3012,1.3192,1.3192,1.3343,1.3345,1.3346]},{"header":{"parameterUnit":"m.s-1","parameterCategory":1,"la1":30.2991,"la2":30.254,"lo1":-89.0895,"lo2":-89.0444,"dy":0.0017,"dx":0.0017,"nx":28,"ny":28,"refTime":"2024-05-17T03:00:00:Z","depth":0,"parameterNumber":3,"parameterNumberName":"V-component_of_WINDS"},"data":[0,0,0,0,0,0,0,0,0,0,0,0,0,0,0,0,0,0,0,0,0,0,0,0,0,0,0,0,0,0,0,0,0,0,0,0,0,0,0,0,0,0,0,0,0,0,0,0,0,0,0,0,0,0,0,0,0,0,-0.734,-0.7338,0,-0.7141,-0.7139,-0.7137,-0.7117,-0.7119,-0.7121,-0.7123,-0.6907,-0.69,-0.6892,0,0,0,0,0,0,0,0,0,0,0,0,0,-0.769,-0.7684,-0.7341,-0.7338,-0.7336,-0.7142,-0.7139,-0.7136,-0.7117,-0.7119,-0.7122,-0.7124,-0.691,-0.6901,-0.6891,0,0,0,0,0,0,0,0,0,0,0,0,0,-0.7519,-0.7682,-0.7341,-0.7303,-0.7297,-0.7142,-0.7139,-0.7135,-0.7116,-0.7119,-0.7122,-0.7125,-0.6913,-0.6901,-0.689,-0.6756,0,0,-0.6855,-0.685,0,0,0,0,0,0,0,0,-0.7529,-0.7506,-0.7311,-0.7305,-0.7299,-0.7158,-0.7183,-0.7008,-0.7115,-0.7185,-0.7123,-0.7127,-0.6987,-0.697,-0.6925,-0.6745,-0.6736,-0.6854,-0.6847,-0.6842,-0.6838,0,0,0,0,0,0,0,-0.7541,-0.7515,-0.7261,-0.7308,-0.7301,-0.7291,-0.727,-0.715,-0.707,-0.7179,-0.7177,-0.7154,-0.6984,-0.6936,-0.692,-0.6733,-0.6854,-0.6844,-0.6837,-0.6832,-0.6427,-0.6424,0,0,0,0,0,0,-0.7562,-0.7525,-0.7268,-0.7255,-0.7425,-0.7282,-0.7259,-0.7199,-0.7072,-0.7055,-0.7152,-0.7154,-0.6954,-0.6933,-0.6912,-0.6742,-0.6842,-0.6831,-0.6824,-0.6431,-0.6427,-0.6422,0,0,0,0,0,0,-0.7569,-0.7539,-0.7276,-0.739,-0.7355,-0.7273,-0.7206,-0.7194,-0.7146,-0.7051,-0.7036,-0.7118,-0.6956,-0.6928,-0.6794,-0.6735,-0.6826,-0.6815,-0.6436,-0.643,-0.6424,-0.6404,0,0,0,0,0,0,-0.758,-0.7542,-0.7494,-0.7389,-0.735,-0.7165,-0.7203,-0.7188,-0.7127,-0.7128,-0.7015,-0.7,-0.6956,-0.6812,-0.6783,-0.672,-0.6806,-0.6441,-0.6433,-0.6426,-0.641,-0.6399,-0.6389,0,0,0,0,0,-0.7592,-0.7494,-0.7491,-0.746,-0.7288,-0.7162,-0.7139,-0.7095,-0.7123,-0.7071,-0.7009,-0.7003,-0.6747,-0.6798,-0.6765,-0.6699,-0.6444,-0.6435,-0.6427,-0.6415,-0.6401,-0.6389,0,0,0,0,0,0,-0.759,-0.748,-0.7475,-0.7342,-0.7262,-0.7159,-0.7093,-0.7082,-0.699,-0.6994,-0.694,-0.6914,-0.6781,-0.6727,-0.6786,-0.6559,-0.6597,-0.6582,-0.6599,-0.6586,-0.6575,-0.6589,-0.6797,0,0,0,0,0,-0.7576,-0.7487,-0.7393,-0.7284,-0.7245,-0.7176,-0.7119,-0.7092,-0.7005,-0.697,-0.6899,-0.6812,-0.6711,-0.6646,-0.6548,-0.6403,-0.6375,-0.634,-0.633,-0.6322,-0.6308,-0.6222,-0.6204,-0.6394,-0.6394,-0.6394,0,0,-0.7541,-0.747,-0.7417,-0.7282,-0.7217,-0.7121,-0.7147,-0.7046,-0.6973,-0.6954,-0.6823,-0.6768,-0.6666,-0.6525,-0.6459,-0.6475,-0.6249,-0.6311,-0.6305,-0.6295,-0.6211,-0.6193,-0.6177,-0.6388,-0.6389,-0.639,0,0,-0.7431,-0.737,-0.7271,-0.7205,-0.7107,-0.7062,-0.7038,-0.6936,-0.6899,-0.6768,-0.6751,-0.6661,-0.649,-0.6417,-0.6358,-0.6217,-0.6205,-0.6186,-0.613,-0.6047,-0.6032,-0.6018,-0.5963,-0.5945,-0.6173,-0.6173,-0.6173,0,-0.74,-0.726,-0.7219,-0.7118,-0.7057,-0.7039,-0.6934,-0.6871,-0.6745,-0.67,-0.6722,-0.6505,-0.6436,-0.6275,-0.624,-0.6194,-0.6161,-0.6197,-0.6038,-0.6024,-0.6011,-0.5957,-0.5937,-0.6171,-0.6172,-0.6172,-0.6172,0,-0.7224,-0.7126,-0.7057,-0.6939,-0.6869,-0.6767,-0.6707,-0.6641,-0.6619,-0.657,-0.6433,-0.6349,-0.6233,-0.6193,-0.617,-0.6027,-0.604,-0.6051,-0.6087,-0.5991,-0.594,-0.592,-0.6168,-0.6169,-0.617,-0.617,0,0,-0.7105,-0.6966,-0.694,-0.6885,-0.6775,-0.6696,-0.6591,-0.648,-0.6422,-0.6335,-0.6241,-0.6097,-0.6105,-0.6037,-0.6006,-0.5933,-0.5821,-0.5952,-0.5949,-0.5927,-0.5652,-0.5642,-0.562,-0.5815,-0.5811,-0.5807,-0.5659,0,-0.6978,-0.6795,-0.6754,-0.6593,-0.6499,-0.648,-0.6387,-0.6306,-0.6257,-0.6167,-0.611,-0.6007,-0.6029,-0.5987,-0.5915,-0.585,-0.5764,-0.5861,-0.5721,-0.5717,-0.5744,-0.5594,-0.5583,-0.5447,-0.5639,-0.5636,-0.5634,0,-0.6806,-0.6718,-0.6548,-0.6448,-0.6407,-0.6325,-0.6217,-0.6134,-0.604,-0.6008,-0.5933,-0.5908,-0.5792,-0.5837,-0.5673,-0.574,-0.568,-0.564,-0.5633,-0.5615,-0.5667,-0.5567,-0.5403,-0.5381,-0.5603,-0.5605,-0.5607,0,-0.6731,-0.6569,-0.6446,-0.6399,-0.628,-0.6222,-0.6169,-0.6079,-0.6014,-0.5919,-0.5875,-0.5767,-0.5706,-0.5621,-0.5566,-0.5605,-0.5404,-0.5446,-0.537,-0.5371,-0.5326,-0.5329,-0.5146,-0.5295,-0.5295,-0.5295,-0.5296,0,-0.6591,-0.6487,-0.641,-0.6334,-0.6215,-0.6168,-0.6049,-0.5995,-0.5915,-0.5824,-0.58,-0.5714,-0.5649,-0.5553,-0.5508,-0.5376,-0.535,-0.5318,-0.5306,-0.5317,-0.5321,-0.5275,-0.5281,-0.529,-0.5291,-0.5292,-0.5293,0,-0.6486,-0.6431,-0.6295,-0.6193,-0.6165,-0.6081,-0.5992,-0.5914,-0.5865,-0.5749,-0.5719,-0.5639,-0.5524,-0.5462,-0.5317,-0.5287,-0.5138,-0.5134,-0.517,-0.5165,-0.509,-0.5097,-0.4868,-0.4833,-0.501,-0.5008,-0.5007,0,-0.6399,-0.6318,-0.6208,-0.6148,-0.6094,-0.5996,-0.593,-0.5879,-0.581,-0.5696,-0.563,-0.5515,-0.542,-0.5236,-0.5162,-0.505,-0.504,-0.4967,-0.5022,-0.5035,-0.5033,-0.5037,-0.5026,-0.4956,-0.4955,-0.4953,-0.4952,0,-0.6248,-0.6224,-0.6132,-0.6028,-0.595,-0.5866,-0.5782,-0.5732,-0.5666,-0.5589,-0.5473,-0.5399,-0.5252,-0.5135,-0.5017,-0.4957,-0.4941,-0.4936,-0.4912,-0.492,-0.4943,-0.4925,-0.514,-0.4941,-0.4942,-0.4943,-0.4943,-0.4944,-0.6145,-0.6071,-0.5982,-0.5878,-0.581,-0.5731,-0.5653,-0.5594,-0.5497,-0.5376,-0.5351,-0.5226,-0.513,-0.4971,-0.4907,-0.4806,-0.4819,-0.4785,-0.4776,-0.4767,-0.4762,-0.4963,-0.4785,-0.4785,-0.4785,-0.4785,-0.4786,0,-0.5989,-0.593,-0.5836,-0.572,-0.5637,-0.5635,-0.554,-0.5469,-0.5362,-0.5276,-0.5183,-0.5047,-0.4933,-0.4851,-0.4734,-0.4668,-0.4657,-0.4638,-0.464,-0.4625,-0.4759,-0.4789,-0.4649,-0.4649,-0.4649,-0.4649,-0.4649,-0.4649,-0.5897,-0.5771,-0.5736,-0.5574,-0.5515,-0.5396,-0.5341,-0.5267,-0.5198,-0.5048,-0.4955,-0.4903,-0.4816,-0.4693,-0.4586,-0.4565,-0.452,-0.4501,-0.4478,-0.4602,-0.4617,-0.4631,-0.4659,-0.4493,-0.4493,-0.4352,-0.4351,-0.435]}]]